Home > Weather > Independence > Past weeks

Flag for U.S.A. Weather for the Past 2 Weeks in Independence, Missouri, U.S.A.

Now
50 °F

Partly sunny.


Feels Like: 42 °F
Forecast: 36 / 51 °F
Wind: 28 mph from Northwest

Location: Lee's Summit Municipal Airport

Current Time: Feb 7, 2016 at 5:59:07 PM

Latest Report: Feb 7, 2016 at 4:53 PM


Visibility: 10 mi

Pressure: 30.00 "Hg

Humidity: 25%

Dew point: 15 °F

Location of IndependenceLocation

Historic Weather in Independence — Graph

°F

Independence Temperature Yesterday

Maximum temperature yesterday: 48 °F (at 1:53 PM)
Minimum temperature yesterday: 27 °F (at 6:53 AM)
Average temperature yesterday: 39 °F

High & Low Weather Summary for the Past Weeks

 TemperatureHumidityPressure
High64 °F (Jan 29, 3:53 PM)96% (Feb 2, 8:53 AM)30.46 "Hg (Feb 2, 8:53 AM)
Low19 °F (Feb 4, 5:53 AM)28% (Feb 4, 4:53 PM)29.36 "Hg (Feb 2, 1:53 PM)
Average39 °F65%29.98 "Hg
* Reported Jan 23 3:53 PM — Feb 7 3:53 PM, Independence, Weather by CustomWeather, © 2016

Note: Actual official high and low records may vary slightly from our data, if they occured in-between our weather recording intervals... More about our weather records

Advertising

Independence Weather History for the Previous 24 Hours

 ConditionsComfort  
Time TempWeatherWind HumidityBarometerVisibility
3:53 PM
Sun, Feb 7
50 °FPassing clouds.21 mph35%30.00 "Hg10 mi
2:53 PM50 °FPassing clouds.20 mph35%30.00 "Hg10 mi
1:53 PM50 °FPartly sunny.20 mph33%30.01 "Hg10 mi
12:53 PM49 °FPassing clouds.17 mph35%30.04 "Hg10 mi
11:53 AM50 °FPassing clouds.16 mph39%30.05 "Hg10 mi
10:53 AM47 °FSunny.17 mph46%30.05 "Hg10 mi
9:53 AM43 °FOvercast.13 mph56%30.06 "Hg10 mi
8:53 AM40 °FPartly sunny.9 mph60%30.05 "Hg10 mi
7:53 AM39 °FSunny.9 mph60%30.02 "Hg10 mi
6:53 AM39 °FClear.12 mph60%30.01 "Hg10 mi
5:53 AM40 °FClear.16 mph58%29.99 "Hg10 mi
4:53 AM38 °FClear.16 mph65%30.00 "Hg10 mi
3:53 AM39 °FClear.16 mph62%30.00 "Hg10 mi
2:53 AM38 °FClear.16 mph65%30.04 "Hg10 mi
1:53 AM39 °FClear.16 mph62%30.06 "Hg10 mi
12:53 AM39 °FClear.16 mph62%30.09 "Hg10 mi
11:53 PM
Sat, Feb 6
40 °FClear.14 mph60%30.11 "Hg10 mi
10:53 PM40 °FClear.14 mph60%30.11 "Hg10 mi
9:53 PM40 °FClear.15 mph63%30.13 "Hg10 mi
8:53 PM41 °FClear.12 mph60%30.15 "Hg10 mi
7:53 PM41 °FClear.12 mph62%30.16 "Hg10 mi
6:53 PM41 °FClear.8 mph62%30.20 "Hg10 mi
5:53 PM45 °FClear.12 mph53%30.20 "Hg10 mi
Weather by CustomWeather, © 2016

See weather overviewHow to use our weather pages